Weather History for CYMX - February, 2013

Change the Weather History Date:

Sunday, February 24, 2013

  Actual Average Record
Temperature  
Mean Temperature 30 °F -  
Max Temperature 33 °F 25 °F 37 °F (1998)
Min Temperature 28 °F 8 °F -18 °F (2015)
Degree Days  
Heating Degree Days 34    
Moisture  
Dew Point 29 °F    
Average Humidity 92    
Maximum Humidity 100    
Minimum Humidity 81    
Precipitation  
Precipitation 0.00 in - - ()
Sea Level Pressure  
Sea Level Pressure 29.87 in    
Wind  
Wind Speed 2 mph ()    
Max Wind Speed 5 mph    
Max Gust Speed -    
Visibility 3.0 miles    
Events Snow    
Averages and records for this station are not official NWS values.
T = Trace of Precipitation, MM = Missing Value Source: Averaged Metar Reports

Daily Weather History Graph

Daily Weather History Graph

Search for Another Location

Airport or City:

Trip Planner

Search our weather history database for the weather conditions in past years. The results will help you decide how hot, cold, wet, or windy it might be!

Date:

Astronomy

Feb. 24, 2013 Rise Set
Actual Time 6:43 AM EST 5:36 PM EST
Civil Twilight 6:13 AM EST 6:06 PM EST
Nautical Twilight 5:38 AM EST 6:40 PM EST
Astronomical Twilight 5:04 AM EST 7:15 PM EST
Moon 4:44 PM EST (2/24) 5:40 AM EST (2/24)
Length of Visible Light 11h 53m
Length of Day
10h 53m
Waxing Gibbous, 99% of the Moon is Illuminated
Feb 24
Waxing Gibbous
Feb 25
Full
Mar 4
Last Quarter
Mar 11
New
Mar 19
First Quarter

Hourly Weather History & Observations

Time (EST) Temp. Windchill Dew Point Humidity Pressure Visibility Wind Dir Wind Speed Gust Speed Precip Events Conditions
12:00 AM 30.2 °F 26.7 °F 30.2 °F 100% 29.89 in 1.2 mi NNE 3.5 mph - N/A Snow Light Snow
1:00 AM 30.2 °F 25.4 °F 30.2 °F 100% 29.87 in 1.2 mi North 4.6 mph - N/A Snow Light Snow
2:00 AM 30.2 °F 26.7 °F 30.2 °F 100% 29.86 in 1.2 mi NNE 3.5 mph - N/A Snow Light Snow
3:00 AM 30.2 °F 26.7 °F 28.4 °F 93% 29.85 in 1.5 mi NE 3.5 mph - N/A Snow Light Snow
4:00 AM 30.2 °F 26.7 °F 28.4 °F 93% 29.84 in 1.5 mi NNE 3.5 mph - N/A Snow Light Snow
5:00 AM 28.4 °F 24.6 °F 28.4 °F 100% 29.84 in 1.5 mi NE 3.5 mph - N/A Snow Light Snow
5:44 AM 28.4 °F - 28.4 °F 100% 29.85 in 2.0 mi Calm Calm - N/A Snow Light Snow
6:00 AM 28.4 °F 24.6 °F 28.4 °F 100% 29.85 in 2.0 mi NNE 3.5 mph - N/A Snow Light Snow
7:00 AM 30.2 °F - 28.4 °F 93% 29.86 in 0.8 mi Calm Calm - N/A Snow Light Snow
8:00 AM 30.2 °F - 30.2 °F 100% 29.86 in 0.8 mi Calm Calm - N/A Snow Light Snow
9:00 AM 30.2 °F 26.7 °F 30.2 °F 100% 29.85 in 0.8 mi NE 3.5 mph - N/A Snow Light Snow
9:22 AM 30.2 °F - 30.2 °F 100% 29.85 in 1.2 mi Calm Calm - N/A Snow Light Snow
10:00 AM 30.2 °F 26.7 °F 30.2 °F 100% 29.85 in 2.0 mi NE 3.5 mph - N/A Snow Light Snow
10:25 AM 30.2 °F - 30.2 °F 100% 29.84 in 2.0 mi Calm Calm - N/A Snow Light Snow
11:00 AM 32.0 °F - 30.2 °F 93% 29.84 in 2.0 mi Calm Calm - N/A Snow Light Snow
11:31 AM 32.0 °F - 30.2 °F 93% 29.84 in 3.0 mi Calm Calm - N/A Snow Light Snow
12:00 PM 32.0 °F - 30.2 °F 93% 29.84 in 3.0 mi Variable 2.3 mph - N/A Snow Light Snow
1:00 PM 33.8 °F 30.8 °F 28.4 °F 81% 29.84 in 4.0 mi West 3.5 mph - N/A Snow Light Snow
2:00 PM 33.8 °F - 28.4 °F 81% 29.84 in 4.0 mi Calm Calm - N/A Snow Light Snow
3:00 PM 33.8 °F 29.6 °F 28.4 °F 81% 29.85 in 4.0 mi West 4.6 mph - N/A Snow Light Snow
4:00 PM 33.8 °F 29.6 °F 28.4 °F 81% 29.86 in 5.0 mi SW 4.6 mph - N/A Snow Light Snow
5:00 PM 33.8 °F 29.6 °F 28.4 °F 81% 29.87 in 5.0 mi WSW 4.6 mph - N/A Snow Light Snow
6:00 PM 33.8 °F 30.8 °F 28.4 °F 81% 29.89 in 5.0 mi SW 3.5 mph - N/A Snow Light Snow
7:00 PM 33.8 °F 30.8 °F 28.4 °F 81% 29.91 in 6.0 mi WSW 3.5 mph - N/A Snow Light Snow
8:00 PM 32.0 °F 28.7 °F 28.4 °F 87% 29.93 in 6.0 mi WSW 3.5 mph - N/A Snow Light Snow
9:00 PM 32.0 °F 28.7 °F 28.4 °F 87% 29.95 in 6.0 mi WSW 3.5 mph - N/A Snow Light Snow
10:00 PM 32.0 °F 28.7 °F 28.4 °F 87% 29.96 in 6.0 mi West 3.5 mph - N/A Snow Light Snow
11:00 PM 32.0 °F 28.7 °F 28.4 °F 87% 29.97 in 6.0 mi West 3.5 mph - N/A Snow Light Snow